Location: Crescent
(42.8242°N, 73.7329°W)
Time: 00:51:53
(UTC+00:00)

Vanguard 2 Rocket - Pass Details

Date: 21 February 2026
Orbit: 553 x 3286 km, 32.9° (Epoch: 9 March)

Event Time Altitude Azimuth Distance (km) Brightness Sun altitude
Rises 12:11:05 0° 170° (S) 6,710 11.7 4.1°
Reaches altitude 10° 12:24:23 10° 133° (SE) 6,192 12.7 6.4°
Maximum altitude 12:25:25 10° 129° (SE) 6,201 12.9 6.6°
Drops below altitude 10° 12:26:27 10° 126° (SE) 6,218 13.1 6.7°
Sets 12:40:05 0° 90° (E) 7,059 12.8 9.1°
